Location: McFarlands Corners
(41.4117°N, 81.3382°W)
Time: 03:45:33
(UTC+00:00)

Transit 4A - Pass Details

Date: 25 February 2026
Orbit: 864 x 977 km, 66.8° (Epoch: 7 March)

Event Time Altitude Azimuth Distance (km) Brightness Sun altitude
Rises 08:18:13 0° 233° (SW) 3,456 - -42.2°
Reaches altitude 10° 08:20:51 10° 242° (WSW) 2,533 - -41.8°
Maximum altitude 08:26:16 38° 309° (NW) 1,346 - -40.9°
Exits shadow 08:30:34 16° 10° (N) 2,188 10.1 -40.2°
Drops below altitude 10° 08:31:52 10° 17° (NNE) 2,612 10.6 -40.0°
Sets 08:34:38 0° 25° (NNE) 3,577 11.6 -39.5°
